Location: Newark
(51.3318°N, 0.0053°E)
Time: 08:07:37
(UTC+00:00)

CAS-6 - Pass Details

Date: 06 July 2022
Orbit: 613 x 634 km, 97.9° (Epoch: 17 August)

Event Time Altitude Azimuth Distance (km) Brightness Sun altitude
Exits shadow 21:34:58 12° 142° (SE) 1,868 ? -9.1°
Maximum altitude 21:38:49 48° 69° (ENE) 816 ? -9.4°
Drops below altitude 10° 21:43:00 10° 356° (N) 1,997 ? -9.8°
Sets 21:45:14 0° 351° (N) 2,905 ? -9.9°
